Regional Weather Roundup
Issued by NWS Boston, MA

Current Version | Previous Version | Text Only | Print | Product List | Glossary Off
Versions: 1 2 3 4 5 6 7 8 9 10 11 12 13 14 15 16 17 18 19 20 21 22 23 24 25 26 27

000
ASUS41 KBOX 271610
RWRBOX

REGIONAL WEATHER ROUNDUP
NATIONAL WEATHER SERVICE TAUNTON MA
1200 PM EDT THU APR 27 2017

NOTE:  "FAIR" INDICATES FEW OR NO CLOUDS BELOW 12,000 FEET WITH NO
SIGNIFICANT WEATHER AND/OR OBSTRUCTIONS TO VISIBILITY.

MAZALL-271700-
EASTERN MASSACHUSETTS

CITY           SKY/WX    TMP DP  RH WIND       PRES   REMARKS
BOSTON         CLOUDY    57  54  89 E6        29.94S
BEVERLY        CLOUDY    58  55  90 CALM      29.93F
LAWRENCE       CLOUDY    61  55  81 W3        29.95S
BEDFORD        CLOUDY    59  54  83 CALM      29.92F
BLUE HILL        N/A     59  55  87 VRB3      29.92S
NORWOOD        PTSUNNY   62  57  83 CALM      29.92F
MARSHFIELD     CLOUDY    54  52  94 VRB5      29.93F
PLYMOUTH       CLOUDY    57  55  93 CALM      29.94S FOG
TAUNTON        CLOUDY    60  55  83 SE5       29.93S
NEW BEDFORD    CLOUDY    60  56  86 CALM      29.92F
$$

MAZALL-271700-
CAPE COD AND THE ISLANDS

CITY           SKY/WX    TMP DP  RH WIND       PRES   REMARKS
FALMOUTH         N/A    N/A N/A N/A MISG        N/A
HYANNIS        CLOUDY    53  52  96 N6        29.93R FOG
CHATHAM        CLOUDY    57  57 100 VRB3      29.94R
PROVINCETOWN   CLOUDY    48  47  96 N5        29.95R
NANTUCKET      CLOUDY    56  53  90 N5        29.93S FOG
MARTHAS VNYRD  CLOUDY    60  58  92 VRB6      29.93F
$$

MAZALL-271700-
CENTRAL AND WESTERN MASSACHUSETTS

CITY           SKY/WX    TMP DP  RH WIND       PRES   REMARKS
WORCESTER      CLOUDY    59  54  83 SW3       29.93S
FITCHBURG      CLOUDY    62  55  77 CALM      29.93S
ORANGE         CLOUDY    62  56  80 CALM      29.92R
SPRINGFIELD    PTSUNNY   62  55  78 CALM      29.90F
WESTFIELD      CLOUDY    63  56  78 VRB3      29.91S
NORTH ADAMS    CLOUDY    67  55  65 E12G17    29.88F
PITTSFIELD     CLOUDY    62  54  74 SW6       29.89S
$$

RIZALL-271700-
RHODE ISLAND

CITY           SKY/WX    TMP DP  RH WIND       PRES   REMARKS
PROVIDENCE     PTSUNNY   62  57  83 E3        29.93S
NEWPORT        CLOUDY    60  57  89 S8        29.93R
BLOCK ISLAND   CLOUDY    58  56  93 SW7       29.95S
SMITHFIELD     CLOUDY    61  56  83 CALM      29.93S
WESTERLY       CLOUDY    62  57  83 S9        29.94S
$$

CTZALL-271700-
CONNECTICUT

CITY           SKY/WX    TMP DP  RH WIND       PRES   REMARKS
BRADLEY INTL   CLOUDY    63  55  75 S6        29.92S
HARTFORD       CLOUDY    63  56  78 CALM      29.91F
BRIDGEPORT     CLOUDY    62  58  86 S5        29.92F
DANBURY        CLOUDY    61  57  87 VRB3      29.93S
GROTON         CLOUDY    57  55  93 S5        29.93S FOG
NEW HAVEN      CLOUDY    60  58  92 S6        29.92F
CHESTER        CLOUDY    61  57  88 S6        29.93S
MERIDEN        CLOUDY    65  57  75 S7        29.91F
WILLIMANTIC    CLOUDY    64  57  78 S7        29.93S
OXFORD         CLOUDY    61  55  82 S5        29.93F FOG
$$

MEZ002-015-021-024-NHZ003-005-008-011-012-014-VTZ005-008-271700-
NORTHERN NEW ENGLAND

CITY           SKY/WX    TMP DP  RH WIND       PRES   REMARKS
PORTLAND ME    CLOUDY    54  52  93 NE3       29.96R
BANGOR ME      PTSUNNY   62  57  83 E5        29.95F
CONCORD NH     CLOUDY    59  56  89 CALM      29.93S
MANCHESTER NH  CLOUDY    60  53  77 CALM      29.92S
NASHUA NH      CLOUDY    59  55  87 CALM      29.93F
PORTSMOUTH NH  CLOUDY    56  54  92 CALM      29.93S
JAFFREY NH     CLOUDY    62  57  83 CALM      29.92F
KEENE NH       CLOUDY    63  56  78 S6        29.92S
BURLINGTON VT  PTSUNNY   72  57  59 S10       29.83S
MT. WASHINGTON FOG       48  48 100 S10         N/A  VSB 1/4
$$

NYZ052-076-271700-
EASTERN NEW YORK

CITY           SKY/WX    TMP DP  RH WIND       PRES   REMARKS
ALBANY         CLOUDY    66  56  70 S14       29.88F
NEW YORK CITY  CLOUDY    67  56  67 S8        29.90F
$$

ANZALL-271700-
MARINE OBSERVATIONS

STATION/POSITION TIME  TEMP    WIND        PRES    VSBY  WAVE
                       AIR SEA DIR/SP/G                  HT/PER
                 (UTC) (F)     (DEG/KT/KT) (MB)    (MI)  (FT/S)
BOSTON BUOY      1450   49 47  280/  2/  4 1012.9          5/ 8
BUZZARDS BAY     1500   53     280/  2/  2 1014.2R
NANTUCKET SOUND  1550      50              1013.6R         2/ 5
MASS BAY-STELLWA 1504   48 45  350/  2/  2 1013.0R         4/10
ISLE OF SHOALS   1500   47      30/ 11/ 12 1013.3F
S OF BLOCK IS    1555      49                N/A           7/10
$$

......................KEY.........................
  SKY/WX - SKY CONDITION/PRESENT WEATHER
  TMP    - TEMPERATURE IN FAHRENHEIT
  DWPT   - DEWPOINT IN FAHRENHEIT
  RH     - RELATIVE HUMIDITY IN PERCENT
  WIND   - DIRECTION AND SPEED IN MPH
  PRES   - MEAN SEA LEVEL PRESSURE IN INCHES OF HG
  WCI    - WIND CHILL INDEX
  VSB    - VISIBILITY IN MILES
  HX     - HEAT INDEX
  TC     - TEMPERATURE IN CELSIUS
  VRB    - VARIABLE WIND DIRECTION
  N/A    - NOT AVAILABLE




USA.gov is the U.S. government's official web portal to all federal, state and local government web resources and services.